STARLINK-11467, 62068

Orbit data source: Space-Track

STARLINK-11467, 62068 is a payload satellite owned by SpaceX/Seattle (US) in LEO that was launched on Sun, 24 Nov 2024 UTC via an FALCON 9 launch vehicle from the Air Force Western Test Range (AFWTR). Payload-class satellites include a variety of spacecraft equipped with specific instruments for various scientific and technological missions. These include communications satellites like Starlink; space stations such as the ISS; scientific satellites like the Hubble; Earth observation satellites from companies like Planet Labs, Umbra, and HawkEye 360; GPS; miniature CubeSats for education and research; and military/defense satellites.

Loading next visibility...
Identifier
62068, 2024-217M
Orbit
LEO
Country
Flag of USUS
Related business
Manufacturer
SpaceX/Seattle
Mission
Operational Commercial Communications
Bus & Motor
STARLINK V2MD, Unknown motor
Mass
960 kg wet, ~910 kg dry
Launch date (UTC)
2024-11-24 (1 year ago)
Launch vehicle
FALCON 9
Launch site
Air Force Western Test Range (AFWTR)
Object type
Payload
Rocket body
Debris
Shape & HBR
Box + 2 Pan, 18.1 m
Radar Cross Section
36.964 m², Large (>1 m²)

Expand to show TLE details & history
Last TLE update: 11 hours ago

TLE from 11 hours ago
0 STARLINK-11467
1 62068U 24217M   26095.29606700  .00209270  00000-0  16863-2 0  9996
2 62068  53.1567 299.9997 0001944  92.8631 267.2609 15.69747923 79351
Epoch: 2026-04-05T07:06Z
TLE epoch observation values (Epoch: 2026-04-05T07:06:20.188Z)
Latitude
-0.00007°
Longitude
-0.188°
Altitude
360.596 km
Speed
7.694 km/s
True Right ascension
19h 59m 59s
True Declination
0° 00' 00"
Sunlit
Object was in daylight at epoch
Visualization orbit readout
Latitude
Unknown
Longitude
Unknown
Altitude
Unknown
Speed
Unknown
Apparent Right ascension
Unknown
Apparent Declination
Unknown
Sunlit
N/A
Visualization observer readout
Local Sidereal Time
00:14:55
Azimuth
Unknown
Elevation
Unknown
Doppler factor
Unknown
Orbital elements
Apogee altitude
361.189 km
Perigee altitude
358.57 km
Semi-major axis
6,738.016 km
Eccentricity
0.00019
Inclination
53.1567°
RAAN
299.9997°
Arg. of periapsis
92.8631°
True anomaly
267.23865°
Mean anomaly
267.2609°
Eccentric anomaly
267.24977°
Mean motion
3.92415 °/min
Orbital period
91.74 mins
BSTAR
0.0016863
Loading maneuver chart data...
Computing Atmospheric mass density...
Loading historical data...
Loading historical data...
Loading historical data...
Loading historical data...
Loading historical data...
Loading historical data...
Loading historical data...

Documentation

Showing up to 5 results
|